Погода в Ербенте

Погода в Ербенте : погода сейчас, прогноз погоды и архив. Всё, что Вы хотите узнать о погоде в Ербенте!

Хотите узнать прогноз погоды в Ербенте? Тогда Вам сюда: Погода в Ербенте

Поиск расширенной информации на нашем сайте:

Другие новости

Новости СМИ2

Главная страница сайта

Новости сайта

03.07.2017

Напоминаем, что на нашем специализированном сайте Метеоцентр.Азия вы можете получить высокодетализированные автоматические прогнозы погоды по пунктам России, СНГ и мира в авиационном формате (включающие направление и скорость ветра, видимость, явления погоды, количество и форму облачности, нижнюю и верхнюю границу облачности).


Погода в Ербенте - сегодня

Время (UTC), дата Ветер
(°,м/с) 
Видим.   Явления Облачность Т
(°С)
Тd
(°С)
f(%) Тe
(°С)
Pmin
(гПа)
dP
(гПа)
Po
(мм)
O2
(г/м3)
Тmin Tmax R s Состояние
почвы
21 21.11.17 110 (В) 20000 м    ясно 
+13.2 -8.6 21 +13  1007.9  -2.1  748  288           
00 22.11.17 110 (В) 20000 м    ясно 
+11.6 -8.2 24 +11  1006.9  -1.1  747  290           
03 22.11.17 110 (В) 20000 м    8/0 средняя 
[Ac cast]
+9.2 -9.4 26 +9  1016.7  -0.2  747  292           
06 22.11.17 110 (В) 20000 м    9/6 1000 м средняя 
[Sc|Ac cast]
+10.8 -9 24 +11  1006.4  -0.3  747  290  +8.5         
09 22.11.17 110 (В) 20000 м    9/0 средняя 
[Ac cast]
+18.8 -8.2 15 +20  1004.9  -1.2  746  282           
12 22.11.17 090 (В) 20000 м    9/0 средняя 
[Ac cast]
+18.8 -7.8 16 +20  1004.7  -0.2  746  282           
15 22.11.17 110 (В) 20000 м    9/0 средняя 
[Ac cast]
+16 -6.7 20 +17  1005.6  0.8  746  285    +19.4       
18 22.11.17 тихо ()   20000 м    ясно 
+16.2 -7.8 18 +16  1006.3  0.7  747  285    +19.4       
21 22.11.17 тихо ()   20000 м    ясно 
+12 -7.8 24 +12  1007.2  0.7  747  289           
00 23.11.17 290 (З) 20000 м    ясно 
+10 -6.7 30 +10  1008.5  1.2  748  292           
03 23.11.17 270 (З) 20000 м    9/0 верхняя 
[Ci sp]
+8 +2.3 67 +8  1014  1.8  750  293           
06 23.11.17 290 (З) 20000 м    6/0 верхняя 
[Ci sp]
+10.8 +5.6 70 +11  1011.6  1.4  751  290  +7.9         
09 23.11.17 320 (СЗ) 20000 м    10/0 средняя 
[Ac cast]
+12 +5.8 66 +12  1010.4  -1.2  750  288           
12 23.11.17 290 (З) 20000 м    9/9 1000 м 
[Sc]
+12.4 +6.2 66 +13  1011.1  0.8  750  288           
15 23.11.17 290 (З) 20000 м    10/10 1000 м 
[Sc]
+10.4 +7.7 83 +10  1013  1.8  752  290    +12.6  0.0     
18 23.11.17 270 (З) 20000 м  в посл. час ливневой дождь  10/10 1000 м 
[Sc]
+9.8 +7.3 84 +10  1014.1  752  291    +12.6  0.0     
21 23.11.17 270 (З) 20000 м    10/10 1000 м 
[Sc]
+9.6 +7.3 86 +10  1015.4  1.3  753  292           
00 24.11.17 360 (С) 20000 м    ясно 
+8.4 +6.7 89 +8  1016.3  0.9  754  294           
03 24.11.17 тихо ()   20000 м    6/0 средняя 
[Ac cast]
+6.7 +4.9 88 +7  1017.6  1.2  755  296         
06 24.11.17 тихо ()   20000 м    4/3 600 м кучево-дожд., средняя 
[Cb cap|Ac cast]
+9.4 +7.3 87 +9  1019.6  757  293  +6.6       
09 24.11.17 070 (В) 20000 м    10/10 1000 м 
[Sc]
+8.8 +5.5 80 +9  1017.8  -1.6  755  294           
12 24.11.17 090 (В) 20000 м    10/10 1000 м 
[Sc]
+9.1 +5.8 80 +9  1017.1  -0.8  755  293           
15 24.11.17 020 (С) 20000 м    10/10 1000 м 
[Sc]
+8.4 +5 79 +8  1017.3  0.2  755  294    +10.1       
18 24.11.17 050 (СВ) 20000 м  в посл. час ливневой дождь  10/10 1000 м 
[Sc]
+7.4 +6.1 91 +6  1018  0.6  755  295    +10.1       
21 24.11.17 360 (С) 20000 м  в посл. час ливневой дождь  10/10 1000 м 
[Sc]
+6.9 +5.6 91 +6  1017.2  -0.8  755  296           
Время (UTC), дата Ветер
(°,м/с) 
Видим.   Явления Облачность Т
(°С)
Тd
(°С)
f(%) Тe
(°С)
Pmin
(гПа)
dP
(гПа)
Po
(мм)
O2
(г/м3)
Тmin Tmax R s Состояние
почвы

Для получения пояснительной информации подведите курсор к названию столбца.

ПОГОДА в Ербенте - архив

Всё, что Вы хотите узнать о погоде в Ербенте - удобно и подробно!

Выберите нужную дату (начиная с 1 января 2015* года) и нажмите кнопку "Найти".
Будут отображены архивные сводки погоды по пункту Ербент, начиная с указанной даты.


Отображать данные в формате CSV (для использования в таблицах Excel)


Внимание! Наш архив погоды предназначен исключительно для личного некоммерческого использования в познавательных целях. Если Вам необходимы официальные справки о состоянии погоды (для производственных, юридических, коммерческих и т.п. целей), обращайтесь в органы Росгидромета.

*Примечание: данная дата относится к архиву по метеостанциям СССР (Россия, СНГ, Балтия).
Архив по метеостанциям Зарубежной Европы и Азии (кроме Китая) хранится 10 дней, по другим регионам земного шара (Китай, Африка, Америка, Австралия, Океания) - 1 день.

Ербент - район местоположения метеостанции


Название, широта, долгота, высота метеостанции:
Ербент 39.3°ш. 58.6°д. 87 м над ур. моря [Туркменистан]

Дополнительная информация

В oтличие oт бoльшинства пoгoдных сайтoв мы публикуем пoдрoбную метеoинфoрмацию в детальнoм прoфессиoнальнoм фoрмате.

Характеристики температуры и влажнoсти вoздуха измеряются на высoте 2 м в тени вдали oт зданий и деревьев.
Скoрoсть ветра измеряется на высoте 10 м (на урoвне рoста челoвека скoрoсть ветра ниже в 1.5-2 раза). Если метеoстанция нахoдится в гoрoде или в лесу, тo скoрoсть ветра занижена на 2-4 м/с пo сравнению с oткрытым местoм. Скoрoсть ветра над акватoриями крупных рек и oзёр, а также на вершинах хoлмoв на 2-5 м/с выше, чем в oбычных услoвиях.
Атмoсфернoе давление в разных тoчках местнoсти мoжет значительнo oтличаться oт давления на метеoстанции, в зависимoсти oт услoвий рельефа (при пoдъёме на 10 м давление пoнижается примернo на 1 мм рт.ст.).